Augusta Bush, GA

5:57 AM EDT on August 22, 2017 (GMT -0400)
Augusta Regional At Bush

Weather History for KAGS - January, 2013

Change the Weather History Date:

Monday, January 28, 2013

  Actual Average Record
Temperature  
Mean Temperature 52 °F 46 °F  
Max Temperature 63 °F 59 °F 80 °F (1944)
Min Temperature 40 °F 33 °F 10 °F (1986)
Degree Days  
Heating Degree Days 13 19  
Month to date heating degree days 374 553  
Since 1 July heating degree days 1300 1528  
Cooling Degree Days 0 0  
Month to date cooling degree days 13 0  
Year to date cooling degree days 13 0  
Growing Degree Days 1 (Base 50)    
Moisture  
Dew Point 37 °F    
Average Humidity 72    
Maximum Humidity 92    
Minimum Humidity 52    
Precipitation  
Precipitation T in 0.13 in 1.59 in (1962)
Month to date precipitation 0.29 3.52  
Year to date precipitation 0.29 3.52  
Sea Level Pressure  
Sea Level Pressure 30.39 in    
Wind  
Wind Speed 3 mph (NE)    
Max Wind Speed 8 mph    
Max Gust Speed 8 mph    
Visibility 8 miles    
Events Rain    
T = Trace of Precipitation, MM = Missing Value Source: NWS Daily Summary

Daily Weather History Graph

Daily Weather History Graph

Search for Another Location

Airport or City:

Trip Planner

Search our weather history database for the weather conditions in past years. The results will help you decide how hot, cold, wet, or windy it might be!

Date:

Astronomy

Jan. 28, 2013 Rise Set
Actual Time 7:26 AM EST 5:55 PM EST
Civil Twilight 6:59 AM EST 6:22 PM EST
Nautical Twilight 6:30 AM EST 6:52 PM EST
Astronomical Twilight 6:00 AM EST 7:21 PM EST
Moon 7:40 PM EST (1/28) 7:58 AM EST (1/28)
Length of Visible Light 11h 22m
Length of Day
10h 29m
Full, 98% of the Moon is Illuminated
Jan 28
Full
Feb 3
Last Quarter
Feb 10
New
Feb 17
First Quarter
Feb 25
Full

Hourly Weather History & Observations

Time (EST) Temp. Windchill Dew Point Humidity Pressure Visibility Wind Dir Wind Speed Gust Speed Precip Events Conditions
12:53 AM 39.9 °F - 30.0 °F 68% 30.46 in 10.0 mi Calm Calm - N/A   Mostly Cloudy
1:03 AM 39.2 °F - 30.2 °F 70% 30.46 in 10.0 mi Calm Calm - N/A   Scattered Clouds
1:48 AM 42.8 °F 41.1 °F 30.2 °F 61% 30.44 in 10.0 mi East 3.5 mph - N/A   Mostly Cloudy
1:53 AM 43.0 °F 41.3 °F 30.9 °F 62% 30.45 in 10.0 mi East 3.5 mph - N/A   Mostly Cloudy
2:45 AM 42.8 °F 41.1 °F 30.2 °F 61% 30.44 in 10.0 mi ESE 3.5 mph - N/A   Overcast
2:53 AM 43.0 °F 41.3 °F 32.0 °F 65% 30.43 in 10.0 mi East 3.5 mph - N/A   Overcast
3:11 AM 42.8 °F 41.1 °F 30.2 °F 61% 30.43 in 10.0 mi ENE 3.5 mph - N/A   Overcast
3:53 AM 43.0 °F 41.3 °F 32.0 °F 65% 30.44 in 10.0 mi NE 3.5 mph - N/A   Overcast
4:53 AM 43.0 °F 41.3 °F 32.0 °F 65% 30.43 in 10.0 mi NE 3.5 mph - N/A   Overcast
5:53 AM 43.0 °F 39.5 °F 33.1 °F 68% 30.43 in 10.0 mi NE 5.8 mph - 0.00 in Rain Light Rain
6:53 AM 42.8 °F 41.1 °F 33.8 °F 70% 30.44 in 10.0 mi NNE 3.5 mph - N/A Rain Light Rain
7:53 AM 42.1 °F - 36.0 °F 79% 30.45 in 7.0 mi Calm Calm - 0.00 in Rain Light Rain
8:53 AM 43.0 °F 40.3 °F 36.0 °F 76% 30.46 in 7.0 mi NNE 4.6 mph - 0.00 in   Overcast
9:53 AM 43.0 °F 39.5 °F 36.0 °F 76% 30.47 in 5.0 mi NNE 5.8 mph - 0.00 in Rain Light Rain
10:53 AM 45.0 °F 43.5 °F 37.9 °F 76% 30.45 in 5.0 mi East 3.5 mph - 0.00 in   Haze
11:53 AM 48.0 °F - 39.0 °F 71% 30.44 in 7.0 mi Calm Calm - N/A   Overcast
12:32 PM 51.8 °F - 41.0 °F 67% 30.40 in 7.0 mi Calm Calm - N/A   Scattered Clouds
12:53 PM 53.1 °F - 41.0 °F 64% 30.39 in 7.0 mi Variable 3.5 mph - N/A   Scattered Clouds
1:53 PM 57.0 °F - 43.0 °F 59% 30.35 in 7.0 mi Variable 3.5 mph - N/A   Scattered Clouds
2:53 PM 60.1 °F - 44.1 °F 55% 30.32 in 8.0 mi North 4.6 mph - N/A   Overcast
3:53 PM 61.0 °F - 44.1 °F 54% 30.31 in 8.0 mi North 3.5 mph - N/A   Overcast
4:53 PM 62.1 °F - 45.0 °F 53% 30.31 in 8.0 mi North 3.5 mph - N/A   Mostly Cloudy
5:53 PM 57.0 °F - 45.0 °F 64% 30.30 in 7.0 mi Calm Calm - N/A   Mostly Cloudy
6:53 PM 51.1 °F - 44.1 °F 77% 30.31 in 8.0 mi Calm Calm - N/A   Clear
7:53 PM 46.9 °F - 43.0 °F 86% 30.30 in 7.0 mi Calm Calm - N/A   Clear
8:53 PM 45.0 °F 42.6 °F 42.1 °F 90% 30.31 in 6.0 mi North 4.6 mph - N/A   Clear
9:53 PM 46.9 °F - 43.0 °F 86% 30.32 in 5.0 mi NNW 4.6 mph - N/A   Clear
10:53 PM 45.0 °F - 42.1 °F 90% 30.31 in 4.0 mi Calm Calm - N/A   Clear
11:53 PM 43.0 °F - 41.0 °F 93% 30.30 in 4.0 mi Calm Calm - N/A   Clear